timestamp,wind_dir_avg,wind_spd_avg,wind_spd_max_dir,wind_spd_gust,battery_voltage,lat,long
2023-04-25 00:04:00+00:00,34.0,11.7,37.0,13.0,12.49,47.59359,-54.27349
2023-04-25 00:14:00+00:00,30.0,11.2,33.0,12.9,12.33,47.59359,-54.27349
2023-04-25 00:24:00+00:00,29.0,11.02,33.0,12.41,12.33,47.59359,-54.27349
2023-04-25 00:34:00+00:00,35.0,10.97,36.0,12.21,12.33,47.59359,-54.27349
2023-04-25 00:44:00+00:00,34.0,10.31,35.0,11.45,12.33,47.59359,-54.27349
2023-04-25 00:54:00+00:00,34.0,10.8,33.0,12.39,12.33,47.59359,-54.27349
2023-04-25 01:04:00+00:00,30.0,10.64,32.0,12.07,12.33,47.59359,-54.27349
2023-04-25 01:14:00+00:00,34.0,10.2,38.0,11.33,12.33,47.59359,-54.27349
2023-04-25 01:24:00+00:00,33.0,10.39,33.0,11.85,12.33,47.59359,-54.27349
2023-04-25 01:34:00+00:00,33.0,9.8,36.0,10.83,12.33,47.59359,-54.27349
2023-04-25 01:44:00+00:00,30.0,10.59,26.0,11.94,12.33,47.59359,-54.27349
2023-04-25 01:54:00+00:00,34.0,11.35,30.0,13.04,12.33,47.59359,-54.27349
2023-04-25 02:04:00+00:00,35.0,10.58,37.0,11.68,12.33,47.59359,-54.27349
2023-04-25 02:14:00+00:00,32.0,8.8,39.0,10.02,12.25,47.59359,-54.27349
2023-04-25 02:24:00+00:00,30.0,8.29,29.0,9.46,12.25,47.59359,-54.27349
2023-04-25 02:34:00+00:00,29.0,8.21,23.0,8.86,12.25,47.59359,-54.27349
2023-04-25 02:44:00+00:00,25.0,7.4,21.0,8.84,12.25,47.59359,-54.27349
2023-04-25 02:54:00+00:00,33.0,8.07,36.0,9.17,12.25,47.59359,-54.27349
2023-04-25 03:04:00+00:00,31.0,8.74,31.0,11.1,12.25,47.59359,-54.27349
2023-04-25 03:14:01+00:00,35.0,9.01,38.0,10.44,12.25,47.59359,-54.27349
2023-04-25 03:24:01+00:00,28.0,8.32,27.0,9.18,12.25,47.59359,-54.27349
2023-04-25 03:34:01+00:00,25.0,9.54,21.0,10.62,12.25,47.59359,-54.27349
2023-04-25 03:44:01+00:00,33.0,9.33,34.0,10.51,12.25,47.59359,-54.27349
2023-04-25 03:54:01+00:00,28.0,8.03,31.0,8.75,12.25,47.59359,-54.27349
2023-04-25 04:04:01+00:00,30.0,9.19,28.0,10.53,12.25,47.59359,-54.27349
2023-04-25 04:14:01+00:00,31.0,8.79,29.0,9.74,12.25,47.59359,-54.27349
2023-04-25 04:24:01+00:00,30.0,9.58,37.0,10.9,12.25,47.59359,-54.27349
2023-04-25 04:34:01+00:00,33.0,10.03,35.0,11.77,12.25,47.59359,-54.27349
2023-04-25 04:44:01+00:00,29.0,8.94,31.0,9.65,12.25,47.59359,-54.27349
2023-04-25 04:54:01+00:00,29.0,10.34,28.0,11.56,12.25,47.59359,-54.27349
2023-04-25 05:04:01+00:00,27.0,8.88,29.0,10.08,12.25,47.59359,-54.27349
2023-04-25 05:14:00+00:00,25.0,8.89,23.0,9.91,12.25,47.59359,-54.27349
2023-04-25 05:24:00+00:00,30.0,10.22,36.0,11.13,12.25,47.59359,-54.27349
2023-04-25 05:34:00+00:00,26.0,9.12,22.0,10.03,12.25,47.59359,-54.27349
2023-04-25 05:44:00+00:00,27.0,9.07,28.0,10.42,12.25,47.59359,-54.27349
2023-04-25 05:54:00+00:00,27.0,10.38,31.0,12.18,12.25,47.59359,-54.27349
2023-04-25 06:04:00+00:00,26.0,9.53,27.0,10.7,12.25,47.59359,-54.27349
2023-04-25 06:14:00+00:00,25.0,10.18,22.0,11.31,12.17,47.59359,-54.27349
2023-04-25 06:24:00+00:00,28.0,9.56,31.0,10.9,12.17,47.59359,-54.27349
2023-04-25 06:34:00+00:00,30.0,10.77,32.0,11.96,12.17,47.59359,-54.27349
2023-04-25 06:44:00+00:00,29.0,10.01,33.0,11.44,12.17,47.59359,-54.27349
2023-04-25 06:54:00+00:00,28.0,10.72,34.0,12.23,12.17,47.59359,-54.27349
2023-04-25 07:04:00+00:00,29.0,9.77,37.0,11.44,12.17,47.59359,-54.27349
2023-04-25 07:14:01+00:00,28.0,9.74,27.0,10.94,12.17,47.59359,-54.27349
2023-04-25 07:24:01+00:00,26.0,9.63,22.0,10.74,12.17,47.59359,-54.27349
2023-04-25 07:34:01+00:00,30.0,10.32,35.0,11.63,12.17,47.59359,-54.27349
2023-04-25 07:44:01+00:00,31.0,11.63,33.0,13.14,12.17,47.59359,-54.27349
2023-04-25 07:54:01+00:00,32.0,12.11,32.0,13.25,12.17,47.59359,-54.27349
2023-04-25 08:04:01+00:00,38.0,12.03,37.0,13.31,12.17,47.59359,-54.27349
2023-04-25 08:14:00+00:00,32.0,8.68,31.0,9.66,12.17,47.59359,-54.27349
2023-04-25 08:24:00+00:00,37.0,10.77,41.0,12.67,12.17,47.59359,-54.27349
2023-04-25 08:34:00+00:00,31.0,9.54,31.0,11.36,12.17,47.59359,-54.27349
2023-04-25 08:44:00+00:00,43.0,10.67,47.0,12.14,12.17,47.59359,-54.27349
2023-04-25 08:54:00+00:00,40.0,10.53,45.0,12.08,12.17,47.59359,-54.27349
2023-04-25 09:04:00+00:00,37.0,11.87,40.0,13.65,12.17,47.59359,-54.27349
2023-04-25 09:14:00+00:00,40.0,11.88,43.0,13.07,12.09,47.59359,-54.27349
2023-04-25 09:24:00+00:00,45.0,11.4,48.0,12.56,12.09,47.59359,-54.27349
2023-04-25 09:34:00+00:00,44.0,11.27,36.0,12.89,12.09,47.59359,-54.27349
2023-04-25 09:44:00+00:00,46.0,11.62,49.0,13.4,12.09,47.59359,-54.27349
2023-04-25 09:54:00+00:00,49.0,10.82,47.0,12.56,12.09,47.59359,-54.27349
2023-04-25 10:04:00+00:00,46.0,10.78,47.0,12.57,12.09,47.59359,-54.27349
2023-04-25 10:14:01+00:00,38.0,12.54,37.0,14.37,12.25,47.59359,-54.27349
2023-04-25 10:24:01+00:00,28.0,12.44,27.0,14.38,12.25,47.59359,-54.27349
2023-04-25 10:34:01+00:00,27.0,10.23,35.0,12.35,12.25,47.59359,-54.27349
2023-04-25 10:44:01+00:00,28.0,9.26,38.0,10.44,12.25,47.59359,-54.27349
2023-04-25 10:54:01+00:00,36.0,7.93,44.0,10.28,12.25,47.59359,-54.27349
2023-04-25 11:04:01+00:00,36.0,7.01,39.0,8.04,12.25,47.59359,-54.27349
2023-04-25 11:14:00+00:00,35.0,7.41,40.0,8.38,13.6,47.59359,-54.27349
2023-04-25 11:24:00+00:00,46.0,9.84,49.0,11.57,13.6,47.59359,-54.27349
2023-04-25 11:34:00+00:00,45.0,9.99,48.0,12.24,13.6,47.59359,-54.27349
2023-04-25 11:44:00+00:00,41.0,10.95,41.0,12.7,13.6,47.59359,-54.27349
2023-04-25 11:54:00+00:00,44.0,9.75,46.0,12.15,13.6,47.59359,-54.27349
2023-04-25 12:04:00+00:00,36.0,9.59,45.0,11.8,13.6,47.59359,-54.27349
2023-04-25 12:14:00+00:00,47.0,10.38,48.0,11.96,13.6,47.59359,-54.27349
2023-04-25 12:24:00+00:00,44.0,11.4,49.0,12.65,13.6,47.59359,-54.27349
2023-04-25 12:34:00+00:00,43.0,10.87,45.0,12.65,13.6,47.59359,-54.27349
2023-04-25 12:44:00+00:00,46.0,9.99,57.0,11.26,13.6,47.59359,-54.27349
2023-04-25 12:54:00+00:00,48.0,10.22,51.0,12.03,13.6,47.59359,-54.27349
2023-04-25 13:04:00+00:00,56.0,9.36,57.0,11.41,13.6,47.59359,-54.27349
2023-04-25 13:14:00+00:00,51.0,9.64,53.0,11.03,13.84,47.59359,-54.27349
2023-04-25 13:24:00+00:00,54.0,9.41,59.0,11.12,13.84,47.59359,-54.27349
2023-04-25 13:34:00+00:00,55.0,9.26,61.0,10.8,13.84,47.59359,-54.27349
2023-04-25 13:44:00+00:00,57.0,9.61,61.0,11.21,13.84,47.59359,-54.27349
2023-04-25 13:54:00+00:00,65.0,10.32,66.0,11.09,13.84,47.59359,-54.27349
2023-04-25 14:04:00+00:00,68.0,8.61,70.0,10.3,13.84,47.59359,-54.27349
2023-04-25 14:14:00+00:00,67.0,9.06,68.0,10.68,13.6,47.59359,-54.27349
2023-04-25 14:24:00+00:00,59.0,9.32,66.0,10.72,13.6,47.59359,-54.27349
2023-04-25 14:34:00+00:00,62.0,8.84,68.0,10.94,13.6,47.59359,-54.27349
2023-04-25 14:44:00+00:00,63.0,9.02,65.0,10.84,13.6,47.59359,-54.27349
2023-04-25 14:54:00+00:00,63.0,9.32,70.0,10.83,13.6,47.59359,-54.27349
2023-04-25 15:04:00+00:00,54.0,9.58,63.0,10.64,13.6,47.59359,-54.27349
2023-04-25 15:14:00+00:00,53.0,9.72,61.0,10.87,14.48,47.59359,-54.27349
2023-04-25 15:24:00+00:00,58.0,9.84,58.0,11.22,14.48,47.59359,-54.27349
2023-04-25 15:34:00+00:00,54.0,9.59,55.0,10.64,14.48,47.59359,-54.27349
2023-04-25 15:44:00+00:00,61.0,9.6,65.0,11.09,14.48,47.59359,-54.27349
2023-04-25 15:54:00+00:00,68.0,9.5,69.0,10.88,14.48,47.59359,-54.27349
2023-04-25 16:04:00+00:00,69.0,10.19,69.0,11.09,14.48,47.59359,-54.27349
2023-04-25 16:14:01+00:00,70.0,9.33,70.0,10.94,13.92,47.59359,-54.27349
2023-04-25 16:24:01+00:00,67.0,10.63,66.0,11.27,13.92,47.59359,-54.27349
2023-04-25 16:34:01+00:00,69.0,9.31,71.0,10.81,13.92,47.59359,-54.27349
2023-04-25 16:44:01+00:00,68.0,10.31,67.0,11.26,13.92,47.59359,-54.27349
2023-04-25 16:54:01+00:00,65.0,10.16,61.0,11.28,13.92,47.59359,-54.27349
2023-04-25 17:04:01+00:00,63.0,9.9,64.0,10.93,13.92,47.59359,-54.27349
2023-04-25 17:14:00+00:00,62.0,9.28,67.0,10.97,13.76,47.59359,-54.27349
2023-04-25 17:24:00+00:00,66.0,10.21,64.0,11.07,13.76,47.59359,-54.27349
2023-04-25 17:34:00+00:00,60.0,5.91,73.0,9.4,13.76,47.59359,-54.27349
2023-04-25 17:44:00+00:00,60.0,7.65,66.0,9.83,13.76,47.59359,-54.27349
2023-04-25 17:54:00+00:00,59.0,8.39,69.0,10.17,13.76,47.59359,-54.27349
2023-04-25 18:04:00+00:00,60.0,9.03,65.0,10.27,13.76,47.59359,-54.27349
2023-04-25 18:14:01+00:00,55.0,8.69,64.0,10.31,14.32,47.59359,-54.27349
2023-04-25 18:24:01+00:00,48.0,7.29,43.0,8.31,14.32,47.59359,-54.27349
2023-04-25 18:34:01+00:00,51.0,7.14,60.0,8.87,14.32,47.59359,-54.27349
2023-04-25 18:44:01+00:00,51.0,7.28,56.0,8.23,14.32,47.59359,-54.27349
2023-04-25 18:54:01+00:00,50.0,8.45,60.0,9.67,14.32,47.59359,-54.27349
2023-04-25 19:04:01+00:00,48.0,7.12,52.0,8.64,14.32,47.59359,-54.27349
2023-04-25 19:14:00+00:00,42.0,8.13,42.0,9.02,13.6,47.59359,-54.27349
2023-04-25 19:24:00+00:00,53.0,8.43,55.0,9.4,13.6,47.59359,-54.27349
2023-04-25 19:34:00+00:00,48.0,8.63,48.0,9.9,13.6,47.59359,-54.27349
2023-04-25 19:44:00+00:00,45.0,8.94,46.0,10.07,13.6,47.59359,-54.27349
2023-04-25 19:54:00+00:00,43.0,10.04,43.0,10.97,13.6,47.59359,-54.27349
2023-04-25 20:04:00+00:00,44.0,10.23,48.0,11.03,13.6,47.59359,-54.27349
2023-04-25 20:14:01+00:00,36.0,9.86,35.0,11.45,13.68,47.59359,-54.27349
2023-04-25 20:24:01+00:00,40.0,9.18,37.0,10.06,13.68,47.59359,-54.27349
2023-04-25 20:34:01+00:00,46.0,6.86,46.0,8.23,13.68,47.59359,-54.27349
2023-04-25 20:44:01+00:00,47.0,7.93,54.0,9.21,13.68,47.59359,-54.27349
2023-04-25 20:54:01+00:00,42.0,8.14,45.0,8.91,13.68,47.59359,-54.27349
2023-04-25 21:04:01+00:00,38.0,9.17,37.0,10.0,13.68,47.59359,-54.27349
2023-04-25 21:14:00+00:00,41.0,9.64,41.0,10.63,13.53,47.59359,-54.27349
2023-04-25 21:24:00+00:00,46.0,9.55,45.0,10.52,13.53,47.59359,-54.27349
2023-04-25 21:34:00+00:00,44.0,8.76,41.0,9.59,13.53,47.59359,-54.27349
2023-04-25 21:44:00+00:00,48.0,8.36,49.0,9.79,13.53,47.59359,-54.27349
2023-04-25 21:54:00+00:00,42.0,8.8,43.0,9.97,13.53,47.59359,-54.27349
2023-04-25 22:04:00+00:00,40.0,8.36,38.0,9.28,13.53,47.59359,-54.27349
2023-04-25 22:14:00+00:00,37.0,7.98,39.0,9.1,13.13,47.59359,-54.27349
2023-04-25 22:24:00+00:00,39.0,9.59,40.0,10.51,13.13,47.59359,-54.27349
2023-04-25 22:34:00+00:00,30.0,8.04,32.0,8.67,13.13,47.59359,-54.27349
2023-04-25 22:44:00+00:00,29.0,6.36,31.0,7.13,13.13,47.59359,-54.27349
2023-04-25 22:54:00+00:00,33.0,5.59,31.0,6.23,13.13,47.59359,-54.27349
2023-04-25 23:04:00+00:00,33.0,5.66,37.0,6.29,13.13,47.59359,-54.27349
2023-04-25 23:14:00+00:00,37.0,6.29,34.0,7.22,12.57,47.59359,-54.27349
2023-04-25 23:24:00+00:00,41.0,7.12,33.0,8.11,12.57,47.59359,-54.27349
2023-04-25 23:34:00+00:00,30.0,7.09,32.0,7.92,12.57,47.59359,-54.27349
2023-04-25 23:44:00+00:00,8.0,7.71,10.0,8.76,12.57,47.59359,-54.27349
2023-04-25 23:54:00+00:00,11.0,8.42,15.0,9.82,12.57,47.59359,-54.27349
